This is the latest recevied weather packets stored in our database for station/object OK1FET-14. If no packets are shown the sender has not sent any weather packets the latest 1 day(s).
| Time | Temp. | Humidity | Pressure | Rain* | Wind** | Luminosity | Snow |
|---|---|---|---|---|---|---|---|
| 1778067272 | 18.89° C | 58% | 1007.9 hPa | - | - | - | - |
| 1778066991 | 18.33° C | 65% | 1007.9 hPa | - | - | - | - |
| 1778066991 | 18.33° C | 65% | 1007.9 hPa | - | - | - | - |
| 1778066991 | 18.33° C | 65% | 1007.9 hPa | - | - | - | - |
| 1778066991 | 18.33° C | 65% | 1007.9 hPa | - | - | - | - |
| 1778066434 | 18.33° C | 66% | 1007.9 hPa | - | - | - | - |
| 1778066149 | 17.22° C | 63% | 1008 hPa | - | - | - | - |
| 1778066149 | 17.22° C | 63% | 1008 hPa | - | - | - | - |
| 1778065588 | 17.22° C | 64% | 1008.1 hPa | - | - | - | - |
| 1778065588 | 17.22° C | 64% | 1008.1 hPa | - | - | - | - |
| 1778065588 | 17.22° C | 64% | 1008.1 hPa | - | - | - | - |
| 1778065312 | 16.67° C | 64% | 1008 hPa | - | - | - | - |
| 1778065031 | 16.11° C | 66% | 1008.2 hPa | - | - | - | - |
| 1778065027 | 16.11° C | 66% | 1008.2 hPa | - | - | - | - |
| 1778064750 | 16.11° C | 67% | 1008.2 hPa | - | - | - | - |
| 1778064746 | 16.11° C | 67% | 1008.2 hPa | - | - | - | - |
| 1778064746 | 16.11° C | 67% | 1008.2 hPa | - | - | - | - |
| 1778064746 | 16.11° C | 67% | 1008.2 hPa | - | - | - | - |
| 1778064466 | 16.67° C | 66% | 1008.1 hPa | - | - | - | - |
| 1778064189 | 16.67° C | 67% | 1008.1 hPa | - | - | - | - |
| 1778064189 | 16.67° C | 67% | 1008.1 hPa | - | - | - | - |
| 1778063624 | 17.22° C | 64% | 1008.2 hPa | - | - | - | - |
| 1778063067 | 16.11° C | 66% | 1008.3 hPa | - | - | - | - |
| 1778063067 | 16.11° C | 66% | 1008.3 hPa | - | - | - | - |
| 1778063063 | 16.11° C | 66% | 1008.3 hPa | - | - | - | - |
* Rain since midnight (hover to see other rain measurements)
** Current wind speed in m/s (hover to see current wind gust speed)